Hourly Weather Roundup
Issued by NWS Central Illinois

Home | Current Version | Previous Version | Text Only | Print | Product List | Glossary On
Versions: 1 2 3 4 5 6 7 8 9 10 11 12 13 14 15 16 17 18 19 20 21 22 23 24 25 26 27 28 29 30 31 32 33 34 35 36 37 38 39 40 41 42 43 44 45 46 47 48 49 50
000
NZUS43 KILX 180610
HWRILX

AREA WEATHER ROUNDUP
NATIONAL WEATHER SERVICE, LINCOLN IL
100 AM CDT FRI APR 18 2014


CITY           SKY/WX    TMP DP  RH WIND       PRES   REMARKS
BLOOMINGTON    FAIR      47  36  65 NW7       30.28F
CHAMPAIGN      CLOUDY    48  40  73 N3        30.27R
6HR MIN TEMP:  47; 6HR MAX TEMP:  59;

DANVILLE       FAIR      49  40  72 CALM      30.23F
6HR MIN TEMP:  47; 6HR MAX TEMP:  60;

DECATUR        FAIR      50  40  68 N9        30.27S
6HR MIN TEMP:  50; 6HR MAX TEMP:  60;

FLORA          NOT AVBL
GALESBURG      FAIR      37  34  90 CALM      30.28S
JACKSONVILLE   CLOUDY    46  39  74 NW3       30.29F
6HR MIN TEMP:  46; 6HR MAX TEMP:  56;

LACON          MOCLDY    46  37  70 CALM      30.28S
6HR MIN TEMP:  45; 6HR MAX TEMP:  53;

LAWRENCEVILLE  FAIR      50  42  74 CALM      30.26S
6HR MIN TEMP:  47; 6HR MAX TEMP:  62;

LITCHFIELD     FAIR      48  42  78 CALM      30.27S
$$


CITY           SKY/WX    TMP DP  RH WIND       PRES   REMARKS
LINCOLN        CLOUDY    49  39  66 CALM      30.27F
6HR MIN TEMP:  49; 6HR MAX TEMP:  57;

MACOMB         MOCLDY    39  35  84 W3        30.31R
MATTOON        FAIR      46  40  79 N5        30.25F
6HR MIN TEMP:  46; 6HR MAX TEMP:  62;

MT CARMEL AP   FAIR      48  43  81 SE3       30.25S
OLNEY-NOBLE AP FAIR      45  39  81 CALM      30.26R
PARIS          FAIR      46  40  79 CALM      30.27S
6HR MIN TEMP:  45; 6HR MAX TEMP:  61;

PEORIA         CLOUDY    48  36  63 CALM      30.29R
6HR MIN TEMP:  48; 6HR MAX TEMP:  53; 6HR PCP: TRACE;

PONTIAC        DRIZZLE   48  43  81 W5        30.28S
RANTOUL        MOCLDY    52  40  64 CALM      30.28S
6HR MIN TEMP:  52; 6HR MAX TEMP:  61;

ROBINSON       FAIR      46  43  88 CALM      30.26S
6HR MIN TEMP:  46; 6HR MAX TEMP:  63;

SPRINGFIELD    CLOUDY    49  38  65 N6        30.28F
6HR MIN TEMP:  49; 6HR MAX TEMP:  57;

TAYLORVILLE    FAIR      46  39  76 N5        30.27S
$$

...REGIONAL REPORTS...


CITY           SKY/WX    TMP DP  RH WIND       PRES   REMARKS
CHICAGO O`HARE CLOUDY    47  36  65 SE6       30.26R
KANKAKEE       CLOUDY    49  43  81 NW5       30.27F
MOLINE         FAIR      42  33  70 NW6       30.29R
MOUNT VERNON   FAIR      41  30  65 CALM      30.26S
PITTSFIELD     MOCLDY    47  39  73 CALM      30.29F
QUINCY         CLOUDY    45  38  76 CALM      30.29R
ROCKFORD       MOCLDY    43  34  70 N14       30.30R
$$


CITY           SKY/WX    TMP DP  RH WIND       PRES   REMARKS
BURLINGTON     FAIR      40  34  79 N6        30.28S
CEDAR RAPIDS   FAIR      32  27  81 N8        30.30S WCI  25
DES MOINES     FAIR      41  31  67 E8        30.30R
KIRKSVILLE     FAIR      37  32  82 N3        30.28S
OTTUMWA        FAIR      37  30  75 NE9       30.28F WCI  30
ST LOUIS       MOCLDY    52  39  61 N5        30.28S
$$


CITY           SKY/WX    TMP DP  RH WIND       PRES   REMARKS
TERRE HAUTE    FAIR      50  38  63 NW3       30.26S
EVANSVILLE     FAIR      49  42  77 CALM      30.25F
INDIANAPOLIS   FAIR      48  35  60 S3        30.26S
LAFAYETTE      FAIR      51  39  63 N5        30.25F
MADISON        FAIR      33  30  88 NW3       30.30R
MILWAUKEE      MOCLDY    43  35  73 N6        30.28R
$$




USA.gov is the U.S. government's official web portal to all federal, state and local government web resources and services.